sat.trackr.live / text

‹ back to catalog

STARLINK-1068

NORAD 44772 · 2019-074BM

PAYLOAD ACTIVE UNKNOWN

§ Identity

Operator
Country
US
Launch date
2019-11-11
Launch site
AFETR
Launch vehicle
Mass (kg)
RCS (m²)

Purposes: comms

External: N2YO · Heavens-Above · Gunter

§ Orbital elements

Epoch: 2026-09-19T14:28:54.443424Z

Period
89.41 min
Inclination
53.0282°
Eccentricity
0.0003893
Mean motion
16.10518632 rev/d
Perigee alt
242.8 km
Apogee alt
248.0 km
Semi-major
6,623.6 km
B*
5.3772e-4
RAAN
288.5662°
Arg perigee
62.6206°
Mean anomaly
297.5223°
Rev number
37,947

§ Raw data

STARLINK-10681 44772U 19074BM  26262.60340791  .00536749  16043-3  53772-3 0  99912 44772  53.0282 288.5662 0003893  62.6206 297.5223 16.10518632379471

JSON: /api/v1/satellites/44772 · /tle

For live sub-satellite position, see the globe view (requires WebGL).

§ Visibility from observer

Set your observer location to see the next 7 days of passes ≥ 10°. The values pass through the URL so the page stays shareable.

No JS? Fill the form by hand. The geolocation button needs JavaScript.